Volver al catálogo

FENGYUN 1C DEB

ActivoSSO
NORAD 38809·DEBRIS·🇨🇳 China

Lanzado May 10, 1999 desde Taiyuan Satellite Launch Center

Loading…

Próximos Pases (próximas 24 horas)

TLE

ActualizadoSource: Space-Track

Época: Sep 14, 2026, 06:14 UTC

1 38809U 99025EUZ 26257.25981622  .00000631  00000-0  25637-3 0  9996
2 38809  98.5880 263.9336 0220050 252.3675 105.3363 14.18842394731128

Sigue FENGYUN 1C DEB en tiempo real con AllMySat

Download on the App Store